Regional Weather Roundup
Issued by NWS

Home | Current Version | Previous Version | Graphics & Text | Print | Product List | Glossary Off
Versions: 1 2 3 4 5 6 7 8 9 10 11 12 13 14 15 16 17 18 19 20 21 22 23 24 25 26 27 28 29 30 31 32 33 34 35 36 37 38 39 40 41 42 43 44 45 46 47 48 49 50

000
ASUS43 KTOP 011608
RWRKS

WEATHER ROUNDUP FOR KANSAS
NATIONAL WEATHER SERVICE GOODLAND KS
1100 AM CDT FRI AUG 01 2014

NOTE:  "FAIR" INDICATES FEW OR NO CLOUDS BELOW 12,000 FEET WITH NO
SIGNIFICANT WEATHER AND/OR OBSTRUCTIONS TO VISIBILITY.

KSZ001>006-013>018-027>032-041>047-011700-
NORTHWEST KANSAS

CITY           SKY/WX    TMP DP  RH WIND       PRES   REMARKS
GOODLAND       MOSUNNY   81  53  37 NW9       30.20S
HAYS           SUNNY     82  55  39 N8        30.11R
HILL CITY      SUNNY     84  54  35 VRB6      30.13S
RUSSELL        SUNNY     83  60  45 N12       30.09R
$$

KSZ061>065-074>080-084>089-011700-
SOUTHWEST KANSAS

CITY           SKY/WX    TMP DP  RH WIND       PRES   REMARKS
DODGE CITY     SUNNY     82  56  40 NW9       30.14S
ELKHART          N/A     78  56  46 W5          N/A
GARDEN CITY    SUNNY     77  57  50 NW12      30.17S
GREAT BEND       N/A     79  61  53 N8        30.09R
LIBERAL        SUNNY     79  59  50 NW9       30.20S
PRATT          SUNNY     79  59  50 W7        30.11R
$$

KSZ066>073-081>083-090>101-011700-
SOUTHEAST KANSAS

CITY           SKY/WX    TMP DP  RH WIND       PRES   REMARKS
CHANUTE        SUNNY     78  66  66 SE5       30.10S
COFFEYVILLE    MOSUNNY   74  67  78 VRB6      30.10F
HUTCHINSON     SUNNY     82  58  43 SW9       30.07S
MEDICINE LODGE   N/A     80  61  52 SW7       30.10S
NEWTON         SUNNY     79  57  47 SW14      30.11S
PARSONS        MOSUNNY   76  67  73 S6        30.11S
WICHITA INTL   MOSUNNY   81  57  43 SW12      30.08R
WICHITA JABRA  SUNNY     81  60  48 S14       30.08R
WICHITA MCCONL SUNNY     80  59  48 S9        30.09R
WINFIELD       SUNNY     80  67  64 S8        30.11R
$$

KSZ007>012-019>026-033>040-048>060-102>105-011700-
NORTHEAST KANSAS

CITY           SKY/WX    TMP DP  RH WIND       PRES   REMARKS
CONCORDIA      SUNNY     80  59  48 N10       30.07R
EMPORIA        SUNNY     82  60  47 S12       30.07F
LAWRENCE       SUNNY     78  63  59 SE6       30.08S
MANHATTAN      SUNNY     79  60  52 W7        30.04S
MARYSVILLE     SUNNY     79  61  53 S6        30.04S
OLATHE IND     MOSUNNY   78  61  55 VRB3      30.10R
OLATHE EXE     CLOUDY    75  63  66 E5        30.09R
SALINA         SUNNY     83  60  45 N7        30.06S
TOPEKA BILLARD MOSUNNY   81  63  54 S8        30.06F
TOPEKA FORBES  SUNNY     81  60  48 S10       30.07S
$$



USA.gov is the U.S. government's official web portal to all federal, state and local government web resources and services.